Weather observations for the past three days for
Lexington Blue Grass Airport
Imperial (Metric)
Date Time (edt) Wind (mph) Vis. (mi.) Weather Sky Cond. Temperature (ºF) Relative Humidity Wind Chill (°F) Heat Index (°F) Pressure Precipitation (in)
Air Dwpt 6 hour altimeter (in) sea level (mb) 1 hr 3 hr 6 hr
Max. Min.
15 03:54 S 6 10.00 Fair CLR 75 68 79% 76 30.02 1015.3
15 02:54 S 5 10.00 Fair CLR 75.9 68 77% 77 30.02 1015.4
15 01:54 S 6 10.00 Fair CLR 75.9 66.9 86 75 74% 77 30.03 1015.7
15 00:54 S 7 10.00 Fair CLR 77 66.9 71% 79 30.03 1015.6
14 23:54 SE 7 10.00 Fair CLR 78.1 66.9 69% 80 30.04 1016.0
14 22:54 S 6 10.00 Fair CLR 79 68 69% 81 30.05 1016.4
14 21:54 SE 7 10.00 Fair CLR 81 66.9 62% 83 30.05 1016.4
14 20:54 E 9 10.00 Fair CLR 84 68 59% 87 30.06 1016.8
14 19:54 NE 8 10.00 Fair CLR 86 68 97 86 55% 89 30.06 1016.9
14 18:54 NW 5 10.00 Fair CLR 93.9 66.9 41% 98 30.06 1016.9
14 17:54 Vrbl 6 10.00 A Few Clouds FEW065 96.1 66.9 39% 100 30.07 1017.0
14 16:54 W 9 10.00 Partly Cloudy FEW065 SCT120 96.1 68 40% 101 30.08 1017.5
14 15:54 W 6 10.00 Fair CLR 95 66.9 40% 99 30.09 1017.8
14 14:54 SW 9 G 24 10.00 Partly Cloudy SCT060 96.1 68 40% 101 30.09 1017.8
14 13:54 SW 14 10.00 A Few Clouds FEW055 93 66.9 93.9 73 42% 97 30.12 1018.6
14 12:54 Vrbl 7 G 17 10.00 A Few Clouds FEW048 91 68 47% 95 30.14 1019.4
14 11:54 W 9 G 21 10.00 Fair CLR 90 68 48% 94 30.15 1019.8
14 10:54 W 6 10.00 Fair CLR 88 70 55% 93 30.17 1020.4
14 09:54 SW 6 10.00 Fair CLR 84 68 59% 87 30.17 1020.6
14 08:54 S 5 10.00 Fair CLR 80.1 69.1 69% 83 30.17 1020.4
14 07:54 S 6 10.00 Fair CLR 73 68 73 68 84% 30.17 1020.4
14 06:54 S 5 9.00 Fair CLR 68 66 93% 30.16 1020.4
14 05:54 SE 3 10.00 Fair CLR 70 66 87% 30.15 1019.8
14 04:54 S 5 10.00 Fair CLR 70 66 87% 30.14 1019.3
14 03:54 S 5 10.00 Fair CLR 70 66 87% 30.14 1019.3
14 02:54 S 6 10.00 Fair CLR 72 66 82% 30.16 1020.1
14 01:54 S 5 10.00 Fair CLR 73 66 88 73 79% 30.18 1020.8
14 00:54 Calm 10.00 Fair CLR 73.9 66 76% 30.19 1021.0
13 23:54 Calm 10.00 Fair CLR 75.9 66 72% 77 30.17 1020.5
13 22:54 Calm 10.00 Fair CLR 78.1 66 67% 80 30.17 1020.5
13 21:54 W 3 10.00 Fair CLR 81 66 61% 83 30.17 1020.6
13 20:54 W 6 10.00 Fair CLR 82 66.9 60% 85 30.17 1020.4
13 19:54 NW 3 10.00 Fair CLR 88 64.9 95 87.1 46% 90 30.16 1020.3
13 18:54 NW 5 10.00 Fair CLR 89.1 62.1 41% 89 30.17 1020.6
13 17:54 NW 10 10.00 Fair CLR 91.9 60.1 34% 92 30.16 1020.1
13 16:54 NW 13 G 17 10.00 Fair CLR 95 62.1 34% 96 30.17 1020.4
13 15:54 Vrbl 7 10.00 Fair CLR 93.9 59 31% 93 30.19 1021.0
13 14:54 NW 10 G 17 10.00 A Few Clouds FEW060 93.9 61 33% 94 30.2 1021.4
13 13:54 NW 8 10.00 Fair CLR 91 63 93 73 39% 92 30.21 1021.7
13 12:54 W 8 10.00 A Few Clouds FEW055 91 64.9 42% 93 30.21 1022.0
13 10:54 W 6 10.00 A Few Clouds FEW031 86 70 59% 91 30.22 1022.1
13 09:54 Vrbl 3 10.00 Fair CLR 84 70 63% 88 30.22 1022.3
13 08:54 Calm 10.00 Fair CLR 79 70 74% 82 30.22 1022.3
13 07:54 Calm 7.00 Fair CLR 73 70 73.9 66.9 90% 30.22 1022.1
13 06:54 Calm 8.00 Fair CLR 70 66 87% 30.2 1021.5
13 05:54 Calm 7.00 Fair CLR 70 66.9 90% 30.18 1020.9
13 04:54 Calm 9.00 Fair CLR 70 66 87% 30.17 1020.3
13 03:54 Calm 10.00 Fair CLR 73 68 84% 30.16 1020.0
13 02:54 Calm 10.00 Fair CLR 71.1 66.9 87% 30.16 1020.2
13 01:54 Calm 10.00 Fair CLR 73.9 66.9 87.1 71.1 79% 30.17 1020.6
13 00:54 Calm 10.00 Fair CLR 72 66.9 84% 30.17 1020.5
12 23:54 Calm 10.00 Fair CLR 73.9 66.9 79% 30.16 1020.1
12 22:54 Calm 10.00 Fair CLR 77 66.9 71% 79 30.15 1019.8
12 21:54 Calm 10.00 Fair CLR 79 66 65% 81 30.13 1019.3
12 20:54 NW 3 10.00 Fair CLR 82.9 66 57% 85 30.13 1019.1
12 19:54 NW 5 10.00 Fair CLR 87.1 66 93.9 87.1 50% 89 30.11 1018.7
12 18:54 NW 8 10.00 A Few Clouds FEW070 FEW085 89.1 66.9 48% 92 30.11 1018.4
12 17:54 NW 12 G 22 10.00 Mostly Cloudy BKN065 89.1 66 47% 92 30.1 1018.1
12 16:54 W 9 10.00 Partly Cloudy SCT070 91.9 64 40% 94 30.09 1017.8
12 15:54 Calm 10.00 A Few Clouds FEW065 91.9 64 40% 94 30.09 1017.7
12 14:54 Vrbl 3 10.00 Mostly Cloudy FEW060 BKN090 BKN110 90 64.9 44% 92 30.11 1018.6
12 13:54 Calm 10.00 Mostly Cloudy SCT055 BKN095 90 64.9 93 72 44% 92 30.13 1019.2
12 12:54 S 5 10.00 A Few Clouds FEW050 89.1 66 47% 92 30.14 1019.6
12 11:54 W 5 10.00 Fair CLR 89.1 66 47% 92 30.15 1019.8
12 10:54 SW 5 10.00 Fair CLR 86 68 55% 89 30.14 1019.4
12 09:54 SW 3 10.00 Fair CLR 82 70 67% 86 30.14 1019.3
12 08:54 S 5 10.00 Fair CLR 78.1 69.1 74% 80 30.13 1019.0
12 07:54 Calm 9.00 Fair CLR 72 68 75 68 87% 30.12 1018.7
12 06:54 SE 3 9.00 Fair CLR 69.1 66 90% 30.1 1018.3
12 05:54 Calm 9.00 Fair CLR 69.1 66 90% 30.1 1018.1
12 04:54 Calm 10.00 Fair CLR 69.1 66 90% 30.08 1017.5
Date Time (edt) Wind (mph) Vis. (mi.) Weather Sky Cond. Air Dwpt Max. Min. Relative Humidity Wind Chill (°F) Heat Index (°F) altimeter (in) sea level (mb) 1 hr 3 hr 6 hr
6 hour
Temperature (ºF) Pressure Precipitation (in)